| time (UTC) | temp C | wind direction | speed KPH | gust KPH | rain 1hr cm | rain 24hr cm | rain mn cm | humidity % | barometer mb |
| 20260505212013 | 16 | 344 | 11.3 | 22.5 | 0.51 | 3.20 | 0.64 | 82 | 997.8 |
| 20260505211543 | 17 | 336 | 12.9 | 27.4 | 0.10 | 0.64 | 0.64 | 79 | 997.9 |
| 20260505211517 | 17 | 291 | 12.9 | 27.4 | 0.51 | 3.20 | 0.64 | 79 | 997.9 |
| 20260505211028 | 18 | 325 | 11.3 | 27.4 | 0.20 | 2.90 | 0.58 | 74 | 997.5 |
| 20260505210515 | 19 | 298 | 12.9 | 35.4 | 0.10 | 2.79 | 0.56 | 70 | 997.2 |
| 20260505210050 | 20 | 325 | 12.9 | 35.4 | 0.00 | 0.53 | 0.53 | 65 | 996.8 |
| 20260505210019 | 20 | 319 | 12.9 | 35.4 | 0.00 | 2.69 | 0.53 | 64 | 996.8 |
| 20260505205531 | 20 | 303 | 16.1 | 35.4 | 0.00 | 2.69 | 0.53 | 64 | 996.0 |
| 20260505205017 | 20 | 289 | 16.1 | 33.8 | 0.00 | 2.69 | 0.53 | 64 | 996.0 |
| 20260505204556 | 20 | 305 | 14.5 | 33.8 | 0.00 | 0.53 | 0.53 | 65 | 996.3 |
| 20260505204521 | 20 | 303 | 16.1 | 33.8 | 0.00 | 2.69 | 0.53 | 65 | 996.3 |
| 20260505204032 | 21 | 291 | 9.7 | 30.6 | 0.00 | 2.69 | 0.53 | 66 | 996.2 |
| 20260505203516 | 20 | 298 | 8.0 | 30.6 | 0.00 | 2.69 | 0.53 | 68 | 996.2 |
| 20260505203047 | 19 | 299 | 11.3 | 38.6 | 0.00 | 0.53 | 0.53 | 69 | 996.3 |
| 20260505203016 | 20 | 326 | 12.9 | 38.6 | 0.00 | 2.69 | 0.53 | 69 | 996.2 |
| 20260505202526 | 20 | 260 | 9.7 | 38.6 | 0.00 | 2.69 | 0.53 | 70 | 996.5 |
| 20260505202031 | 20 | 289 | 11.3 | 27.4 | 0.00 | 2.69 | 0.53 | 70 | 996.4 |
| 20260505201539 | 19 | 310 | 11.3 | 27.4 | 0.00 | 0.53 | 0.53 | 71 | 996.5 |
| 20260505201514 | 20 | 274 | 12.9 | 27.4 | 0.00 | 2.69 | 0.53 | 71 | 996.4 |
| 20260505201023 | 19 | 291 | 6.4 | 14.5 | 0.00 | 2.69 | 0.53 | 74 | 996.5 |
| 20260505200527 | 19 | 277 | 8.0 | 19.3 | 0.00 | 2.69 | 0.53 | 75 | 996.4 |
| 20260505200046 | 18 | 282 | 4.8 | 19.3 | 0.00 | 0.53 | 0.53 | 77 | 996.5 |
| 20260505200011 | 19 | 283 | 6.4 | 17.7 | 0.00 | 2.69 | 0.53 | 77 | 996.5 |
| 20260505195524 | 18 | 277 | 4.8 | 14.5 | 0.00 | 2.69 | 0.53 | 78 | 996.7 |
| 20260505195028 | 18 | 260 | 4.8 | 14.5 | 0.00 | 2.69 | 0.53 | 78 | 996.9 |
| 20260505194546 | 18 | 272 | 1.6 | 14.5 | 0.00 | 0.53 | 0.53 | 78 | 997.1 |
| 20260505194513 | 18 | 267 | 3.2 | 14.5 | 0.00 | 2.69 | 0.53 | 78 | 997.1 |
| 20260505194025 | 19 | 243 | 6.4 | 12.9 | 0.00 | 2.69 | 0.53 | 78 | 997.1 |
| 20260505193513 | 18 | 273 | 4.8 | 17.7 | 0.00 | 2.69 | 0.53 | 79 | 997.1 |
| 20260505193049 | 18 | 293 | 3.2 | 17.7 | 0.00 | 0.53 | 0.53 | 80 | 997.1 |
| 20260505193017 | 18 | 295 | 4.8 | 17.7 | 0.00 | 2.69 | 0.53 | 80 | 997.1 |
| 20260505192528 | 18 | 296 | 3.2 | 11.3 | 0.00 | 2.69 | 0.53 | 81 | 997.3 |
| 20260505192014 | 18 | 293 | 6.4 | 11.3 | 0.00 | 2.69 | 0.53 | 82 | 997.4 |
| 20260505191543 | 17 | 274 | 3.2 | 9.7 | 0.00 | 0.53 | 0.53 | 82 | 997.5 |
| 20260505191515 | 17 | 274 | 4.8 | 9.7 | 0.00 | 2.69 | 0.53 | 82 | 997.4 |
| 20260505191028 | 17 | 294 | 3.2 | 11.3 | 0.00 | 2.69 | 0.53 | 83 | 997.7 |
| 20260505190513 | 17 | 275 | 3.2 | 9.7 | 0.00 | 2.69 | 0.53 | 83 | 997.7 |
| 20260505190044 | 17 | 298 | 3.2 | 8.0 | 0.00 | 0.53 | 0.53 | 86 | 997.6 |
| 20260505190016 | 17 | 243 | 1.6 | 8.0 | 0.00 | 2.69 | 0.53 | 87 | 997.5 |
| 20260505185526 | 17 | 303 | 3.2 | 8.0 | 0.00 | 2.69 | 0.53 | 87 | 997.8 |
| 20260505185030 | 16 | 277 | 1.6 | 9.7 | 0.00 | 2.69 | 0.53 | 87 | 997.9 |
| 20260505184543 | 16 | 284 | 1.6 | 9.7 | 0.00 | 0.53 | 0.53 | 87 | 997.9 |
| 20260505184516 | 16 | 283 | 3.2 | 9.7 | 0.00 | 2.69 | 0.53 | 87 | 997.8 |
| 20260505184022 | 16 | 290 | 1.6 | 4.8 | 0.30 | 2.69 | 0.53 | 89 | 997.9 |
| 20260505183527 | 15 | 287 | 0.0 | 3.2 | 0.61 | 2.69 | 0.53 | 89 | 997.9 |
| 20260505183037 | 15 | 287 | 0.0 | 4.8 | 0.15 | 0.53 | 0.53 | 89 | 998.2 |
| 20260505183013 | 15 | 286 | 1.6 | 4.8 | 0.79 | 2.69 | 0.53 | 89 | 998.1 |
| 20260505182526 | 15 | 291 | 0.0 | 4.8 | 0.99 | 2.69 | 0.53 | 89 | 998.1 |
| 20260505182028 | 15 | 296 | 0.0 | 3.2 | 0.99 | 2.69 | 0.53 | 89 | 998.2 |
| 20260505181540 | 14 | 296 | 0.0 | 3.2 | 0.20 | 0.53 | 0.53 | 90 | 998.4 |
| 20260505181513 | 15 | 296 | 0.0 | 3.2 | 0.99 | 2.69 | 0.53 | 90 | 998.3 |
| 20260505181025 | 15 | 297 | 1.6 | 3.2 | 1.09 | 2.69 | 0.53 | 90 | 998.3 |
| 20260505180532 | 14 | 296 | 0.0 | 4.8 | 1.19 | 2.69 | 0.53 | 90 | 998.3 |
| 20260505180016 | 14 | 296 | 1.6 | 4.8 | 1.30 | 2.69 | 0.53 | 90 | 998.3 |
| 20260505175527 | 14 | 305 | 1.6 | 4.8 | 1.40 | 2.69 | 0.53 | 90 | 998.4 |
| 20260505175031 | 14 | 304 | 3.2 | 4.8 | 1.40 | 2.69 | 0.53 | 90 | 998.5 |
| 20260505174557 | 13 | 311 | 0.0 | 4.8 | 0.28 | 0.53 | 0.53 | 89 | 998.7 |
| 20260505174516 | 14 | 311 | 1.6 | 4.8 | 1.40 | 2.69 | 0.53 | 89 | 998.6 |
| 20260505174028 | 14 | 312 | 1.6 | 4.8 | 1.60 | 2.39 | 0.48 | 89 | 998.7 |
| 20260505173514 | 14 | 312 | 0.0 | 6.4 | 1.50 | 2.01 | 0.41 | 89 | 998.8 |
| 20260505173046 | 14 | 314 | 3.2 | 6.4 | 0.38 | 0.38 | 0.38 | 89 | 998.7 |
| 20260505173019 | 14 | 313 | 4.8 | 6.4 | 1.91 | 1.91 | 0.38 | 89 | 998.6 |
| 20260505172532 | 14 | 334 | 1.6 | 8.0 | 1.70 | 1.70 | 0.33 | 89 | 998.6 |
| 20260505172018 | 14 | 312 | 3.2 | 9.7 | 1.70 | 1.70 | 0.33 | 89 | 998.4 |
| 20260505171549 | 14 | 320 | 3.2 | 9.7 | 0.33 | 0.33 | 0.33 | 88 | 998.7 |
| 20260505171524 | 14 | 316 | 3.2 | 9.7 | 1.70 | 1.70 | 0.33 | 88 | 998.6 |
| 20260505171035 | 15 | 301 | 1.6 | 8.0 | 1.60 | 1.60 | 0.33 | 88 | 998.6 |
| 20260505170521 | 15 | 327 | 3.2 | 8.0 | 1.50 | 1.50 | 0.30 | 87 | 998.5 |
| 20260505170048 | 14 | 304 | 4.8 | 8.0 | 0.28 | 0.28 | 0.28 | 87 | 998.7 |
| 20260505170016 | 15 | 305 | 4.8 | 8.0 | 1.40 | 1.40 | 0.28 | 87 | 998.6 |
| 20260505165528 | 15 | 289 | 1.6 | 9.7 | 1.30 | 1.30 | 0.25 | 86 | 998.6 |
| 20260505165012 | 15 | 278 | 4.8 | 14.5 | 1.30 | 1.30 | 0.25 | 85 | 998.7 |
| 20260505164548 | 15 | 293 | 3.2 | 14.5 | 0.25 | 0.25 | 0.25 | 84 | 999.0 |
| 20260505164518 | 15 | 274 | 3.2 | 14.5 | 1.30 | 1.30 | 0.25 | 84 | 998.9 |
| 20260505164028 | 16 | 284 | 3.2 | 17.7 | 0.79 | 0.79 | 0.15 | 82 | 999.0 |
| 20260505163514 | 16 | 272 | 4.8 | 17.7 | 0.41 | 0.41 | 0.08 | 79 | 998.9 |
| 20260505163049 | 16 | 286 | 6.4 | 20.9 | 0.00 | 0.00 | 0.00 | 76 | 999.0 |
| 20260505163019 | 16 | 279 | 6.4 | 20.9 | 0.00 | 0.00 | 0.00 | 76 | 998.8 |
| 20260505162530 | 17 | 267 | 9.7 | 20.9 | 0.00 | 0.00 | 0.00 | 74 | 998.8 |
| 20260505162015 | 17 | 247 | 8.0 | 19.3 | 0.00 | 0.00 | 0.00 | 73 | 998.9 |
| 20260505161554 | 17 | 327 | 4.8 | 17.7 | 0.00 | 0.00 | 0.00 | 72 | 999.1 |
| 20260505161519 | 17 | 272 | 6.4 | 17.7 | 0.00 | 0.00 | 0.00 | 72 | 998.9 |
| 20260505161029 | 17 | 311 | 9.7 | 25.7 | 0.00 | 0.00 | 0.00 | 72 | 999.1 |
| 20260505160516 | 17 | 282 | 12.9 | 25.7 | 0.00 | 0.00 | 0.00 | 71 | 999.1 |
| 20260505153058 | 18 | 283 | 4.8 | 16.1 | 0.00 | 0.08 | 0.00 | 57 | 999.0 |
| 20260505153017 | 19 | 271 | 4.8 | 16.1 | 0.00 | 0.41 | 0.00 | 57 | 998.9 |
| 20260505152520 | 18 | 280 | 6.4 | 12.9 | 0.00 | 0.41 | 0.00 | 57 | 998.8 |
| 20260505152028 | 18 | 274 | 6.4 | 11.3 | 0.00 | 0.41 | 0.00 | 57 | 999.0 |
| 20260505151550 | 17 | 265 | 6.4 | 17.7 | 0.00 | 0.08 | 0.00 | 58 | 999.3 |
| 20260505151530 | 18 | 293 | 6.4 | 17.7 | 0.00 | 0.41 | 0.00 | 58 | 999.1 |
| 20260505151014 | 17 | 291 | 6.4 | 17.7 | 0.00 | 0.41 | 0.00 | 59 | 999.2 |
| 20260505150524 | 17 | 291 | 8.0 | 16.1 | 0.00 | 0.41 | 0.00 | 59 | 999.4 |
| 20260505140531 | 16 | 296 | 1.6 | 6.4 | 0.00 | 0.61 | 0.00 | 59 | 999.7 |
| 20260505125023 | 14 | 279 | 0.0 | 0.0 | 0.00 | 0.61 | 0.00 | 63 | 1000.0 |
| 20260505124532 | 13 | 279 | 0.0 | 0.0 | 0.00 | 0.61 | 0.00 | 63 | 1000.1 |
| 20260505124515 | 13 | 279 | 0.0 | 0.0 | 0.00 | 0.13 | 0.00 | 63 | 1000.3 |
| 20260505124016 | 13 | 279 | 0.0 | 0.0 | 0.00 | 0.61 | 0.00 | 63 | 1000.0 |
| 20260505123519 | 13 | 279 | 0.0 | 0.0 | 0.00 | 0.61 | 0.00 | 65 | 1000.1 |
| 20260505123028 | 13 | 279 | 0.0 | 1.6 | 0.00 | 0.61 | 0.00 | 66 | 1000.1 |
| 20260505123010 | 12 | 279 | 0.0 | 1.6 | 0.00 | 0.13 | 0.00 | 66 | 1000.4 |
| 20260505122529 | 12 | 279 | 0.0 | 3.2 | 0.00 | 0.61 | 0.00 | 66 | 1000.3 |
| 20260505122015 | 12 | 279 | 1.6 | 3.2 | 0.00 | 0.61 | 0.00 | 66 | 1000.2 |
| 20260505121525 | 12 | 272 | 0.0 | 3.2 | 0.00 | 0.61 | 0.00 | 67 | 1000.3 |
| 20260505121509 | 12 | 272 | 0.0 | 3.2 | 0.00 | 0.13 | 0.00 | 67 | 1000.6 |
| 20260505121027 | 12 | 341 | 1.6 | 3.2 | 0.00 | 0.61 | 0.00 | 67 | 1000.3 |
| 20260505120515 | 11 | 284 | 1.6 | 4.8 | 0.00 | 0.61 | 0.00 | 68 | 1000.5 |
| 20260505120024 | 11 | 285 | 0.0 | 4.8 | 0.00 | 0.61 | 0.00 | 69 | 1000.5 |
| 20260505120005 | 11 | 285 | 0.0 | 4.8 | 0.00 | 0.13 | 0.00 | 69 | 1000.8 |
| 20260505115527 | 11 | 274 | 1.6 | 4.8 | 0.00 | 0.61 | 0.00 | 70 | 1000.6 |
| 20260505115011 | 11 | 320 | 1.6 | 4.8 | 0.00 | 0.61 | 0.00 | 70 | 1000.7 |
| 20260505114521 | 10 | 277 | 1.6 | 4.8 | 0.00 | 0.61 | 0.00 | 71 | 1000.6 |
| 20260505114502 | 10 | 277 | 1.6 | 4.8 | 0.00 | 0.13 | 0.00 | 71 | 1000.8 |
| 20260505114026 | 10 | 222 | 1.6 | 4.8 | 0.00 | 0.61 | 0.00 | 71 | 1000.6 |
| 20260505113537 | 10 | 277 | 1.6 | 4.8 | 0.00 | 0.61 | 0.00 | 72 | 1000.5 |
| 20260505113113 | 10 | 229 | 1.6 | 6.4 | 0.00 | 0.13 | 0.00 | 73 | 1000.9 |
| 20260505113019 | 10 | 247 | 1.6 | 6.4 | 0.00 | 0.61 | 0.00 | 73 | 1000.6 |
| 20260505112521 | 9 | 293 | 1.6 | 6.4 | 0.00 | 0.61 | 0.00 | 75 | 1000.7 |
| 20260505112031 | 8 | 13 | 3.2 | 9.7 | 0.00 | 0.61 | 0.00 | 76 | 1000.7 |
| 20260505111612 | 8 | 16 | 3.2 | 9.7 | 0.00 | 0.13 | 0.00 | 76 | 1000.9 |
| 20260505111513 | 8 | 49 | 3.2 | 9.7 | 0.00 | 0.61 | 0.00 | 76 | 1000.7 |
| 20260505111015 | 8 | 274 | 3.2 | 6.4 | 0.00 | 0.61 | 0.00 | 77 | 1000.7 |
| 20260505110527 | 7 | 319 | 3.2 | 6.4 | 0.00 | 0.61 | 0.00 | 77 | 1000.6 |
| 20260505110106 | 7 | 144 | 1.6 | 8.0 | 0.00 | 0.13 | 0.00 | 79 | 1000.9 |
| 20260505102023 | 6 | 33 | 4.8 | 12.9 | 0.00 | 0.61 | 0.00 | 83 | 1000.6 |
| 20260505101601 | 5 | 358 | 4.8 | 12.9 | 0.00 | 0.13 | 0.00 | 83 | 1001.0 |
| 20260505101526 | 6 | 65 | 4.8 | 12.9 | 0.00 | 0.61 | 0.00 | 83 | 1000.7 |
| 20260505101028 | 5 | 62 | 6.4 | 11.3 | 0.00 | 0.61 | 0.00 | 83 | 1000.9 |
| 20260505100521 | 5 | 38 | 4.8 | 12.9 | 0.00 | 0.61 | 0.00 | 83 | 1000.7 |
| 20260505100058 | 5 | 302 | 4.8 | 12.9 | 0.00 | 0.13 | 0.00 | 83 | 1001.1 |
| 20260505100021 | 5 | 40 | 4.8 | 12.9 | 0.00 | 0.61 | 0.00 | 83 | 1000.8 |
| 20260505095526 | 5 | 331 | 6.4 | 14.5 | 0.00 | 0.61 | 0.00 | 83 | 1001.0 |
| 20260505095019 | 5 | 345 | 6.4 | 14.5 | 0.00 | 0.61 | 0.00 | 84 | 1001.0 |
| 20260505094558 | 5 | 60 | 4.8 | 11.3 | 0.00 | 0.13 | 0.00 | 84 | 1001.3 |
| 20260505094521 | 5 | 356 | 4.8 | 11.3 | 0.00 | 0.61 | 0.00 | 84 | 1001.0 |
| 20260505094028 | 5 | 321 | 4.8 | 11.3 | 0.00 | 0.61 | 0.00 | 84 | 1001.1 |
| 20260505093519 | 5 | 60 | 6.4 | 9.7 | 0.00 | 0.61 | 0.00 | 84 | 1001.0 |
| 20260505093101 | 5 | 4 | 3.2 | 11.3 | 0.00 | 0.13 | 0.00 | 84 | 1001.3 |
| 20260505093022 | 5 | 316 | 4.8 | 11.3 | 0.00 | 0.61 | 0.00 | 84 | 1001.0 |
| 20260505092527 | 5 | 323 | 4.8 | 11.3 | 0.00 | 0.61 | 0.00 | 84 | 1001.0 |
| 20260505092018 | 5 | 8 | 6.4 | 11.3 | 0.00 | 0.61 | 0.00 | 84 | 1001.1 |
| 20260505091618 | 5 | 48 | 4.8 | 11.3 | 0.00 | 0.13 | 0.00 | 84 | 1001.5 |
| 20260505091523 | 5 | 12 | 4.8 | 11.3 | 0.00 | 0.61 | 0.00 | 84 | 1001.2 |
| 20260505091029 | 5 | 14 | 3.2 | 11.3 | 0.00 | 0.61 | 0.00 | 83 | 1001.2 |
| 20260505090522 | 5 | 45 | 4.8 | 12.9 | 0.00 | 0.61 | 0.00 | 84 | 1001.1 |
| 20260505090023 | 5 | 343 | 4.8 | 12.9 | 0.00 | 0.61 | 0.00 | 83 | 1001.1 |
| 20260505085529 | 5 | 58 | 6.4 | 12.9 | 0.00 | 0.61 | 0.00 | 83 | 1001.1 |
| 20260505085019 | 5 | 45 | 6.4 | 12.9 | 0.00 | 0.61 | 0.00 | 83 | 1001.0 |
| 20260505084603 | 5 | 14 | 4.8 | 11.3 | 0.00 | 0.13 | 0.00 | 83 | 1001.3 |
| 20260505084524 | 5 | 307 | 6.4 | 11.3 | 0.00 | 0.61 | 0.00 | 83 | 1001.1 |
| 20260505084015 | 5 | 297 | 6.4 | 11.3 | 0.00 | 0.61 | 0.00 | 83 | 1001.1 |
| 20260505083527 | 5 | 97 | 6.4 | 12.9 | 0.00 | 0.61 | 0.00 | 83 | 1001.1 |
| 20260505083106 | 5 | 38 | 4.8 | 16.1 | 0.00 | 0.13 | 0.00 | 83 | 1001.4 |
| 20260505083030 | 5 | 18 | 4.8 | 16.1 | 0.00 | 0.61 | 0.00 | 83 | 1001.2 |
| 20260505082514 | 5 | 47 | 6.4 | 16.1 | 0.00 | 0.61 | 0.00 | 83 | 1001.2 |
| 20260505082024 | 5 | 2 | 4.8 | 12.9 | 0.00 | 0.61 | 0.00 | 83 | 1001.3 |
| 20260505081605 | 5 | 324 | 4.8 | 12.9 | 0.00 | 0.13 | 0.00 | 83 | 1001.6 |
| 20260505081528 | 6 | 338 | 4.8 | 12.9 | 0.00 | 0.61 | 0.00 | 83 | 1001.4 |
| 20260505081012 | 6 | 64 | 6.4 | 11.3 | 0.00 | 0.61 | 0.00 | 83 | 1001.5 |
| 20260505080523 | 6 | 69 | 6.4 | 14.5 | 0.00 | 0.61 | 0.00 | 83 | 1001.6 |
| 20260505080120 | 5 | 85 | 6.4 | 14.5 | 0.00 | 0.13 | 0.00 | 83 | 1001.8 |
| 20260505080027 | 6 | 75 | 6.4 | 14.5 | 0.00 | 0.61 | 0.00 | 83 | 1001.5 |
| 20260505075512 | 6 | 20 | 6.4 | 11.3 | 0.00 | 0.61 | 0.00 | 82 | 1001.6 |
| 20260505075022 | 6 | 1 | 3.2 | 12.9 | 0.00 | 0.61 | 0.00 | 82 | 1001.6 |
| 20260505074607 | 6 | 37 | 4.8 | 12.9 | 0.00 | 0.13 | 0.00 | 82 | 1001.9 |
| 20260505074523 | 6 | 353 | 6.4 | 12.9 | 0.00 | 0.61 | 0.00 | 82 | 1001.6 |
| 20260505074027 | 6 | 33 | 6.4 | 11.3 | 0.00 | 0.61 | 0.00 | 82 | 1001.6 |
| 20260505073520 | 6 | 3 | 4.8 | 12.9 | 0.00 | 0.61 | 0.00 | 82 | 1001.6 |
| 20260505073101 | 6 | 350 | 4.8 | 12.9 | 0.00 | 0.13 | 0.00 | 82 | 1002.0 |
| 20260505073020 | 6 | 75 | 4.8 | 12.9 | 0.00 | 0.61 | 0.00 | 82 | 1001.7 |
| 20260505072525 | 6 | 357 | 6.4 | 12.9 | 0.00 | 0.61 | 0.00 | 82 | 1001.7 |
| 20260505072016 | 6 | 348 | 4.8 | 16.1 | 0.00 | 0.61 | 0.00 | 82 | 1001.6 |
| 20260505071605 | 6 | 309 | 4.8 | 16.1 | 0.00 | 0.13 | 0.00 | 82 | 1001.9 |
| 20260505071522 | 6 | 59 | 6.4 | 16.1 | 0.00 | 0.61 | 0.00 | 82 | 1001.6 |
| 20260505071023 | 6 | 28 | 4.8 | 11.3 | 0.00 | 0.61 | 0.00 | 82 | 1001.6 |
| 20260505070515 | 6 | 4 | 4.8 | 11.3 | 0.00 | 0.61 | 0.00 | 82 | 1001.7 |
| 20260505070058 | 5 | 71 | 4.8 | 11.3 | 0.00 | 0.13 | 0.00 | 82 | 1002.0 |
| 20260505070019 | 6 | 324 | 4.8 | 11.3 | 0.00 | 0.61 | 0.00 | 82 | 1001.7 |
| 20260505065532 | 6 | 89 | 4.8 | 12.9 | 0.00 | 0.61 | 0.00 | 82 | 1001.8 |
| 20260505065016 | 6 | 16 | 4.8 | 12.9 | 0.00 | 0.61 | 0.00 | 82 | 1001.9 |
| 20260505064558 | 5 | 15 | 4.8 | 11.3 | 0.00 | 0.13 | 0.00 | 82 | 1002.2 |
| 20260505064522 | 6 | 3 | 6.4 | 11.3 | 0.00 | 0.61 | 0.00 | 82 | 1001.9 |
| 20260505064024 | 6 | 336 | 4.8 | 11.3 | 0.00 | 0.61 | 0.00 | 82 | 1002.0 |
| 20260505063513 | 6 | 10 | 4.8 | 11.3 | 0.00 | 0.61 | 0.00 | 82 | 1001.9 |
| 20260505063128 | 6 | 39 | 4.8 | 11.3 | 0.00 | 0.13 | 0.00 | 81 | 1002.2 |
| 20260505063016 | 6 | 25 | 4.8 | 11.3 | 0.00 | 0.61 | 0.00 | 81 | 1001.9 |
| 20260505062518 | 6 | 286 | 6.4 | 11.3 | 0.00 | 0.61 | 0.00 | 81 | 1002.0 |
| 20260505062027 | 6 | 332 | 4.8 | 12.9 | 0.00 | 0.61 | 0.00 | 81 | 1002.0 |
| 20260505061615 | 6 | 333 | 6.4 | 12.9 | 0.00 | 0.13 | 0.00 | 81 | 1002.5 |
| 20260505061512 | 6 | 33 | 6.4 | 12.9 | 0.00 | 0.61 | 0.00 | 81 | 1002.2 |
| 20260505061015 | 6 | 68 | 6.4 | 12.9 | 0.00 | 0.61 | 0.00 | 81 | 1002.3 |
| 20260505060525 | 6 | 16 | 6.4 | 11.3 | 0.00 | 0.61 | 0.00 | 81 | 1002.4 |
| 20260505060057 | 6 | 25 | 4.8 | 12.9 | 0.00 | 0.13 | 0.00 | 81 | 1002.8 |
| 20260505060027 | 6 | 360 | 4.8 | 12.9 | 0.00 | 0.61 | 0.00 | 81 | 1002.5 |
| 20260505055021 | 6 | 66 | 8.0 | 12.9 | 0.00 | 0.61 | 0.00 | 81 | 1002.6 |
| 20260505054551 | 6 | 295 | 6.4 | 12.9 | 0.00 | 0.13 | 0.00 | 81 | 1003.0 |
| 20260505054526 | 6 | 335 | 6.4 | 12.9 | 0.00 | 0.61 | 0.00 | 81 | 1002.7 |
| 20260505054037 | 6 | 283 | 4.8 | 9.7 | 0.00 | 0.61 | 0.00 | 81 | 1002.8 |
| 20260505053524 | 6 | 330 | 4.8 | 9.7 | 0.00 | 0.61 | 0.00 | 81 | 1002.8 |
| 20260505053053 | 6 | 45 | 4.8 | 9.7 | 0.00 | 0.13 | 0.00 | 81 | 1003.2 |
| 20260505053028 | 6 | 323 | 4.8 | 9.7 | 0.00 | 0.61 | 0.00 | 81 | 1002.8 |
| 20260505052514 | 6 | 348 | 4.8 | 9.7 | 0.00 | 0.61 | 0.00 | 81 | 1002.8 |
| 20260505052026 | 6 | 5 | 4.8 | 11.3 | 0.00 | 0.61 | 0.00 | 81 | 1002.9 |
| 20260505051614 | 6 | 358 | 3.2 | 11.3 | 0.00 | 0.13 | 0.00 | 81 | 1003.3 |
| 20260505051515 | 6 | 353 | 3.2 | 11.3 | 0.00 | 0.61 | 0.00 | 81 | 1003.0 |
| 20260505051021 | 6 | 52 | 3.2 | 9.7 | 0.00 | 0.61 | 0.00 | 81 | 1003.1 |
| 20260505050533 | 6 | 5 | 4.8 | 9.7 | 0.00 | 0.61 | 0.00 | 81 | 1003.1 |
| 20260505041556 | 6 | 16 | 3.2 | 8.0 | 0.00 | 0.13 | 0.00 | 82 | 1004.0 |
| 20260505041530 | 6 | 165 | 3.2 | 8.0 | 0.00 | 0.61 | 0.00 | 82 | 1003.7 |
| 20260505041015 | 6 | 33 | 1.6 | 8.0 | 0.00 | 0.61 | 0.00 | 82 | 1003.5 |
| 20260505040528 | 6 | 352 | 3.2 | 8.0 | 0.00 | 0.61 | 0.00 | 82 | 1003.4 |
| 20260505040054 | 6 | 335 | 3.2 | 8.0 | 0.00 | 0.13 | 0.13 | 82 | 1003.9 |
| 20260505040011 | 6 | 329 | 4.8 | 8.0 | 0.00 | 0.61 | 0.13 | 82 | 1003.5 |
| 20260505035519 | 6 | 322 | 3.2 | 6.4 | 0.00 | 0.61 | 0.13 | 82 | 1003.7 |
| 20260505035030 | 6 | 139 | 1.6 | 6.4 | 0.00 | 0.61 | 0.13 | 82 | 1003.7 |
| 20260505034558 | 6 | 311 | 1.6 | 8.0 | 0.00 | 0.13 | 0.13 | 82 | 1004.0 |
| 20260505034514 | 6 | 81 | 3.2 | 8.0 | 0.00 | 0.61 | 0.13 | 82 | 1003.7 |
| 20260505034021 | 6 | 342 | 3.2 | 8.0 | 0.00 | 0.61 | 0.13 | 82 | 1003.8 |
| 20260505033515 | 6 | 272 | 3.2 | 6.4 | 0.00 | 0.61 | 0.13 | 82 | 1003.8 |
| 20260505033059 | 6 | 278 | 1.6 | 9.7 | 0.00 | 0.13 | 0.13 | 82 | 1004.1 |
| 20260505033018 | 6 | 293 | 3.2 | 9.7 | 0.00 | 0.61 | 0.13 | 82 | 1003.8 |
| 20260505032524 | 6 | 6 | 4.8 | 9.7 | 0.00 | 0.61 | 0.13 | 82 | 1003.8 |
| 20260505032035 | 7 | 298 | 3.2 | 6.4 | 0.00 | 0.61 | 0.13 | 82 | 1003.7 |
| 20260505031605 | 6 | 278 | 0.0 | 6.4 | 0.00 | 0.13 | 0.13 | 82 | 1004.2 |
| 20260505031521 | 6 | 289 | 0.0 | 4.8 | 0.00 | 0.61 | 0.13 | 82 | 1003.9 |
| 20260505031023 | 6 | 319 | 1.6 | 4.8 | 0.00 | 0.61 | 0.13 | 82 | 1004.0 |
| 20260505030537 | 6 | 308 | 3.2 | 8.0 | 0.00 | 0.61 | 0.13 | 82 | 1003.8 |
| 20260505030103 | 6 | 59 | 3.2 | 8.0 | 0.00 | 0.13 | 0.13 | 83 | 1004.2 |
| 20260505030021 | 6 | 343 | 4.8 | 8.0 | 0.00 | 0.61 | 0.13 | 83 | 1003.9 |
| 20260505025527 | 6 | 6 | 3.2 | 8.0 | 0.00 | 0.61 | 0.13 | 83 | 1003.8 |
| 20260505025013 | 6 | 10 | 4.8 | 9.7 | 0.00 | 0.61 | 0.13 | 84 | 1003.9 |
| 20260505024606 | 6 | 303 | 3.2 | 9.7 | 0.00 | 0.13 | 0.13 | 84 | 1004.2 |
| 20260505024525 | 6 | 4 | 4.8 | 9.7 | 0.00 | 0.61 | 0.13 | 84 | 1003.9 |
| 20260505024011 | 6 | 298 | 3.2 | 6.4 | 0.00 | 0.61 | 0.13 | 84 | 1004.1 |
| 20260505023526 | 6 | 360 | 1.6 | 4.8 | 0.00 | 0.61 | 0.13 | 84 | 1004.1 |
| 20260505023110 | 6 | 311 | 0.0 | 4.8 | 0.00 | 0.13 | 0.13 | 85 | 1004.5 |
| 20260505023029 | 6 | 311 | 1.6 | 4.8 | 0.00 | 0.61 | 0.13 | 85 | 1004.1 |
| 20260505022515 | 6 | 346 | 1.6 | 4.8 | 0.00 | 0.61 | 0.13 | 85 | 1004.2 |
| 20260505022012 | 6 | 9 | 1.6 | 4.8 | 0.00 | 0.61 | 0.13 | 85 | 1004.3 |
| 20260505021604 | 6 | 311 | 1.6 | 3.2 | 0.00 | 0.13 | 0.13 | 85 | 1004.5 |
| 20260505021523 | 6 | 311 | 1.6 | 3.2 | 0.00 | 0.61 | 0.13 | 85 | 1004.2 |
| 20260505021010 | 6 | 286 | 0.0 | 4.8 | 0.00 | 0.61 | 0.13 | 85 | 1004.2 |
| 20260505020523 | 6 | 315 | 1.6 | 3.2 | 0.00 | 0.61 | 0.13 | 85 | 1004.2 |
| 20260505020106 | 6 | 310 | 1.6 | 4.8 | 0.00 | 0.13 | 0.13 | 85 | 1004.6 |
| 20260505020024 | 6 | 315 | 1.6 | 4.8 | 0.00 | 0.61 | 0.13 | 85 | 1004.3 |
| 20260505015531 | 6 | 328 | 1.6 | 4.8 | 0.00 | 0.61 | 0.13 | 85 | 1004.2 |
| 20260505015016 | 6 | 313 | 1.6 | 4.8 | 0.00 | 0.61 | 0.13 | 85 | 1004.3 |
| 20260505014601 | 6 | 308 | 1.6 | 4.8 | 0.00 | 0.13 | 0.13 | 85 | 1004.7 |
| 20260505014522 | 6 | 336 | 1.6 | 4.8 | 0.00 | 0.61 | 0.13 | 85 | 1004.3 |
| 20260505014025 | 6 | 315 | 0.0 | 4.8 | 0.00 | 0.61 | 0.13 | 85 | 1004.4 |
| 20260505013518 | 6 | 317 | 1.6 | 4.8 | 0.00 | 0.61 | 0.13 | 85 | 1004.4 |
| 20260505013107 | 6 | 15 | 0.0 | 4.8 | 0.00 | 0.13 | 0.13 | 85 | 1004.7 |
| 20260505013020 | 6 | 317 | 1.6 | 4.8 | 0.00 | 0.61 | 0.13 | 85 | 1004.4 |
| 20260505012528 | 6 | 318 | 1.6 | 3.2 | 0.00 | 0.61 | 0.13 | 85 | 1004.4 |
| 20260505012027 | 6 | 315 | 0.0 | 3.2 | 0.00 | 0.61 | 0.13 | 85 | 1004.5 |
| 20260505011554 | 6 | 317 | 0.0 | 3.2 | 0.00 | 0.13 | 0.13 | 85 | 1004.8 |
| 20260505011512 | 6 | 317 | 1.6 | 3.2 | 0.00 | 0.61 | 0.13 | 85 | 1004.4 |
| 20260505011017 | 6 | 278 | 0.0 | 1.6 | 0.00 | 0.61 | 0.13 | 84 | 1004.5 |
| 20260505010529 | 6 | 278 | 0.0 | 1.6 | 0.00 | 0.61 | 0.13 | 84 | 1004.6 |
| 20260505010107 | 6 | 278 | 0.0 | 0.0 | 0.00 | 0.13 | 0.13 | 84 | 1005.0 |
| 20260505010024 | 6 | 278 | 0.0 | 0.0 | 0.00 | 0.61 | 0.13 | 84 | 1004.6 |
| 20260505005535 | 6 | 278 | 0.0 | 0.0 | 0.00 | 0.61 | 0.13 | 84 | 1004.5 |
| 20260505005019 | 6 | 278 | 0.0 | 0.0 | 0.00 | 0.61 | 0.13 | 84 | 1004.5 |
| 20260505004550 | 6 | 278 | 0.0 | 0.0 | 0.00 | 0.13 | 0.13 | 83 | 1004.8 |
| 20260505004525 | 7 | 278 | 0.0 | 0.0 | 0.00 | 0.61 | 0.13 | 83 | 1004.4 |